Location: Lane
(33.5226°N, 79.8788°W)
Time: 10:09:27
(UTC+00:00)

Altair - Pass Details

Date: 07 October 2022
Orbit: 1501 x 1682 km, 47.2° (Epoch: 30 November)

Event Time Altitude Azimuth Distance (km) Brightness Sun altitude
Rises 15:00:15 0° 306° (NW) 4,889 9.7 40.6°
Reaches altitude 10° 15:03:23 10° 308° (NW) 3,916 9.3 41.1°
Maximum altitude 15:13:32 79° 35° (NE) 1,710 8.5 42.5°
Drops below altitude 10° 15:23:42 10° 122° (ESE) 3,926 10.6 43.8°
Sets 15:26:51 0° 123° (ESE) 4,901 10.8 44.2°
